STARLINK-35449, 66459

Orbit data source: Space-Track

STARLINK-35449, 66459 is a payload satellite owned by SpaceX/Seattle (US) in LEO that was launched on Sat, 15 Nov 2025 UTC via an FALCON 9 launch vehicle from the Air Force Eastern Test Range (AFETR). Payload-class satellites include a variety of spacecraft equipped with specific instruments for various scientific and technological missions. These include communications satellites like Starlink; space stations such as the ISS; scientific satellites like the Hubble; Earth observation satellites from companies like Planet Labs, Umbra, and HawkEye 360; GPS; miniature CubeSats for education and research; and military/defense satellites.

Loading next visibility...
Identifier
66459, 2025-262D
Orbit
LEO
Country
Flag of USUS
Related business
Manufacturer
SpaceX/Seattle
Mission
Operational Commercial Communications
Bus & Motor
STARLINK V2MO, Unknown motor
Mass
575 kg wet, ~530 kg dry
Launch date (UTC)
2025-11-15 (7 months ago)
Launch vehicle
FALCON 9
Launch site
Air Force Eastern Test Range (AFETR)
Object type
Payload
Rocket body
Debris
Shape & HBR
Box + 2 Pan, 17.7 m
Radar Cross Section
36.964 m², Large (>1 m²)

Expand to show TLE details & history
Last TLE update: 19 hours ago

TLE from 19 hours ago
0 STARLINK-35449
1 66459U 25262D   26171.07555706  .00016550  00000-0  60926-3 0  9992
2 66459  43.0040  78.0693 0001291 274.9925  85.0779 15.27596704 34567
Epoch: 2026-06-20T01:48Z
TLE epoch observation values (Epoch: 2026-06-20T01:48:48.129Z)
Latitude
-0.00006°
Longitude
142.57331°
Altitude
482.699 km
Speed
7.626 km/s
True Right ascension
05h 12m 16s
True Declination
0° 00' 00"
Sunlit
Object was in daylight at epoch
Visualization orbit readout
Latitude
Unknown
Longitude
Unknown
Altitude
Unknown
Speed
Unknown
Apparent Right ascension
Unknown
Apparent Declination
Unknown
Sunlit
N/A
Visualization observer readout
Local Sidereal Time
07:17:36
Azimuth
Unknown
Elevation
Unknown
Doppler factor
Unknown
Orbital elements
Apogee altitude
485.83 km
Perigee altitude
484.058 km
Semi-major axis
6,863.081 km
Eccentricity
0.00013
Inclination
43.004°
RAAN
78.0693°
Arg. of periapsis
274.9925°
True anomaly
85.09264°
Mean anomaly
85.0779°
Eccentric anomaly
85.08527°
Mean motion
3.81737 °/min
Orbital period
94.31 mins
BSTAR
0.00060926
Loading maneuver chart data...
Computing Atmospheric mass density...
Loading historical data...
Loading historical data...
Loading historical data...
Loading historical data...
Loading historical data...
Loading historical data...
Loading historical data...

Documentation

Showing up to 5 results
|